Latest Weather Observations for Mudgee

IDN60801

Issued at 8:35 pm EST Thursday 28 August 2014 (issued every 30 minutes, with the page automatically refreshed every 10 minutes)

About weather observations | Map of weather stations | Latest weather observations for NSW | Other Formats
Station Details ID: 062101 Name: MUDGEE AIRPORT AWS Lat: -32.56 Lon: 149.61 Height: 471.0 m
Data from the previous 72 hours. | See also: Recent months at Mudgee
Date/Time
EST
Temp
°C
App
Temp
°C
Dew
Point
Rel
Hum
%
Delta-T
°C
Wind Press
QNH
hPa
Press
MSL
hPa
Rain
since 9 am
mm
Dir
 
Spd
km/h
Gust
km/h
Spd
kts
Gust
kts
28/08:30pm 10.8 8.2 6.0 72 2.3 SE 9 11 5 6 1027.4 - 0.0
28/08:00pm 11.6 8.2 5.9 68 2.7 ESE 13 20 7 11 1027.2 1027.7 0.0
28/07:30pm 12.0 9.0 6.1 67 2.8 ESE 11 15 6 8 1027.1 - 0.0
28/07:00pm 11.4 9.2 6.1 70 2.5 SSE 7 11 4 6 1026.9 1027.4 0.0
28/06:30pm 12.1 9.9 6.2 67 2.9 SSE 7 11 4 6 1026.4 - 0.0
28/06:00pm 13.3 9.1 5.9 61 3.6 ESE 17 24 9 13 1026.0 1026.6 0.0
28/05:30pm 14.1 11.8 5.5 56 4.2 ESE 7 11 4 6 1025.8 - 0.0
28/05:00pm 14.3 11.0 6.2 58 4.0 ESE 13 24 7 13 1025.6 1026.1 0.0
28/04:30pm 15.4 11.0 4.5 48 5.2 SE 17 20 9 11 1025.2 - 0.0
28/04:00pm 15.8 12.1 6.5 54 4.6 ESE 15 22 8 12 1025.0 1025.5 0.0
28/03:30pm 15.4 10.7 6.1 54 4.6 ESE 20 32 11 17 1024.8 - 0.0
28/03:00pm 15.7 9.8 5.6 51 4.9 SE 26 37 14 20 1024.7 1025.2 0.0
28/02:30pm 16.2 11.4 4.9 47 5.5 S 19 24 10 13 1024.7 - 0.0
28/02:00pm 16.8 12.9 5.4 47 5.6 ESE 15 22 8 12 1024.8 1025.3 0.0
28/01:30pm 15.8 11.4 6.5 54 4.7 S 19 26 10 14 1024.9 - 0.0
28/01:00pm 14.8 10.2 6.6 58 4.1 SSE 20 33 11 18 1025.1 1025.6 0.0
28/12:30pm 16.1 11.5 6.5 53 4.8 ESE 20 35 11 19 1025.2 - 0.0
28/12:00pm 14.8 10.6 7.6 62 3.6 ESE 19 28 10 15 1025.8 1026.3 0.0
28/11:30am 14.4 9.9 7.0 61 3.7 ESE 20 35 11 19 1025.9 - 0.0
28/11:00am 14.1 10.1 6.7 61 3.7 SSE 17 30 9 16 1026.2 1026.7 0.0
28/10:30am 14.3 10.1 7.4 63 3.5 SE 19 30 10 16 1026.3 - 0.0
28/10:00am 14.0 9.1 7.1 63 3.4 SE 22 33 12 18 1026.2 1026.7 0.0
28/09:30am 13.5 8.2 6.8 64 3.3 SE 24 35 13 19 1025.9 - 0.0
28/09:00am 12.9 8.0 6.9 67 2.9 ESE 22 35 12 19 1025.9 1026.4 0.0
28/08:30am 12.3 7.9 7.6 73 2.3 ESE 20 28 11 15 1025.6 - 0.0
28/08:00am 9.8 9.0 6.7 81 1.5 CALM 0 0 0 0 1025.3 1025.8 0.0
28/07:30am 9.0 6.4 6.3 83 1.3 WSW 9 11 5 6 1025.1 - 0.0
28/07:00am 8.1 4.7 5.9 86 1.0 SW 13 17 7 9 1024.8 1025.3 0.0
28/06:30am 7.5 3.9 5.1 85 1.1 SSW 13 15 7 8 1024.6 - 0.0
28/06:16am 7.1 3.5 5.1 87 0.9 SW 13 19 7 10 1024.5 - 0.0
28/06:00am 6.5 3.0 3.7 82 1.2 SSW 11 13 6 7 1024.4 1024.9 0.0
28/05:50am 7.1 3.3 3.9 80 1.4 SSW 13 19 7 10 1024.4 - 0.0
28/05:30am 7.6 3.5 4.2 79 1.5 SSW 15 19 8 10 1024.3 - 0.0
28/05:00am 5.9 2.7 3.1 82 1.2 S 9 13 5 7 1024.3 1024.8 0.0
28/04:30am 5.9 2.3 2.7 80 1.4 S 11 15 6 8 1024.3 - 0.0
28/04:00am 6.6 2.7 3.4 80 1.4 S 13 17 7 9 1024.0 1024.4 0.0
28/03:30am 6.1 2.1 2.9 80 1.4 SSW 13 17 7 9 1024.2 - 0.0
28/03:00am 7.3 3.8 3.5 77 1.7 S 11 13 6 7 1024.1 1024.5 0.0
28/02:30am 7.4 4.7 3.6 77 1.7 SSE 7 13 4 7 1024.2 - 0.0
28/02:00am 7.5 4.4 3.7 77 1.7 SSE 9 13 5 7 1024.6 1025.1 0.0
28/01:30am - - 4.3 - - SSE 7 11 4 6 - - -
28/01:00am 7.7 5.1 4.3 79 1.5 S 7 13 4 7 1024.9 1025.4 0.0
28/12:30am 8.1 5.2 4.9 80 1.5 S 9 13 5 7 1025.2 - 0.0
28/12:00am 7.9 4.6 4.7 80 1.4 S 11 15 6 8 1025.2 1025.7 0.0
 
Date/Time
EST
Temp
°C
App
Temp
°C
Dew
Point
Rel
Hum
%
Delta-T
°C
Wind Press
QNH
hPa
Press
MSL
hPa
Rain
since 9 am
mm
Dir
 
Spd
km/h
Gust
km/h
Spd
kts
Gust
kts
27/11:30pm 8.5 6.1 5.1 79 1.6 SSE 7 13 4 7 1025.1 - 0.0
27/11:00pm 9.2 5.4 5.6 78 1.7 S 15 24 8 13 1025.3 1025.8 0.0
27/10:30pm 9.1 6.4 5.5 78 1.7 SSE 9 13 5 7 1025.3 - 0.0
27/10:00pm 9.4 6.0 5.8 78 1.7 S 13 17 7 9 1025.1 1025.6 0.0
27/09:30pm 9.2 6.3 6.3 82 1.4 S 11 17 6 9 1025.1 - 0.0
27/09:00pm 8.8 6.2 5.9 82 1.4 S 9 13 5 7 1025.2 1025.7 0.0
27/08:30pm 10.1 7.4 5.7 74 2.1 SSE 9 13 5 7 1025.2 - 0.0
27/08:00pm 10.3 7.8 6.5 77 1.8 SSE 9 15 5 8 1025.2 1025.7 0.0
27/07:30pm 10.2 8.0 6.4 77 1.8 S 7 9 4 5 1025.2 - 0.0
27/07:00pm 10.9 8.3 6.3 73 2.2 SSE 9 19 5 10 1024.8 1025.3 0.0
27/06:30pm 11.7 7.6 6.4 70 2.6 SSE 17 22 9 12 1024.5 - 0.0
27/06:00pm 12.5 8.5 6.8 68 2.8 SE 17 28 9 15 1024.3 1024.8 0.0
27/05:30pm 13.5 10.4 7.3 66 3.1 E 13 22 7 12 1023.9 - 0.0
27/05:00pm 14.1 11.0 7.4 64 3.4 SE 13 22 7 12 1023.5 1024.0 0.0
27/04:30pm 13.8 9.4 6.7 62 3.5 ESE 19 30 10 16 1023.3 - 0.0
27/04:00pm 14.9 10.2 6.0 55 4.4 ESE 20 30 11 16 1022.9 1023.4 0.0
27/03:30pm 15.1 10.0 5.9 54 4.5 SSE 22 33 12 18 1022.7 - 0.0
27/03:00pm 15.4 9.7 6.7 56 4.3 S 26 35 14 19 1022.5 1023.0 0.0
27/02:30pm 15.6 11.0 6.3 54 4.6 ESE 20 30 11 16 1022.3 - 0.0
27/02:00pm 16.2 11.0 7.4 56 4.5 ESE 24 37 13 20 1022.2 1022.6 0.0
27/01:30pm 16.3 11.9 7.3 55 4.6 ESE 20 32 11 17 1022.5 - 0.0
27/01:00pm 16.2 11.4 7.2 55 4.6 ESE 22 35 12 19 1022.4 1022.9 0.0
27/12:33pm 15.6 9.6 7.1 57 4.3 ESE 28 48 15 26 1022.6 - 0.0
27/12:30pm 15.3 9.6 6.6 56 4.3 ESE 26 48 14 26 1022.8 - 0.0
27/12:00pm 14.2 8.3 7.3 63 3.5 ESE 28 43 15 23 1023.6 1024.1 0.0
27/11:30am 15.1 10.7 7.2 59 4.0 ESE 20 33 11 18 1023.6 - 0.0
27/11:00am 15.0 8.8 6.3 56 4.3 SE 28 46 15 25 1023.9 1024.3 0.0
27/10:51am 14.6 8.3 5.7 55 4.3 SE 28 46 15 25 1023.9 - 0.0
27/10:30am 15.4 10.3 7.7 60 3.9 ESE 24 37 13 20 1024.0 - 0.0
27/10:00am 13.7 8.0 6.8 63 3.4 SE 26 39 14 21 1024.1 1024.5 0.0
27/09:30am 13.9 8.4 5.8 58 3.9 ESE 24 39 13 21 1023.7 - 0.0
27/09:00am 13.8 7.2 6.2 60 3.7 ESE 30 48 16 26 1023.4 1023.9 0.4
27/08:39am 13.5 7.4 6.6 63 3.4 ESE 28 52 15 28 1023.1 - 0.4
27/08:30am 13.5 8.6 7.1 65 3.2 SE 22 39 12 21 1023.1 - 0.4
27/08:00am 12.4 7.5 6.9 69 2.7 SE 22 35 12 19 1022.8 1023.3 0.4
27/07:30am 11.9 6.9 6.4 69 2.7 SE 22 33 12 18 1022.4 - 0.4
27/07:00am 11.7 6.6 6.2 69 2.6 SE 22 39 12 21 1022.0 1022.4 0.4
27/06:30am 11.7 7.0 6.2 69 2.7 SE 20 32 11 17 1021.7 - 0.4
27/06:00am 11.9 6.6 6.6 70 2.6 ESE 24 41 13 22 1021.7 1022.1 0.4
27/05:31am 12.2 6.3 7.3 72 2.4 ESE 28 48 15 26 1021.2 - 0.4
27/05:30am 12.2 6.3 7.3 72 2.4 ESE 28 43 15 23 1021.3 - 0.4
27/05:00am 11.8 7.5 7.7 76 2.0 ESE 20 35 11 19 1021.4 1021.9 0.4
27/04:30am 11.6 6.1 7.7 77 1.9 ESE 26 39 14 21 1021.4 - 0.4
27/04:00am 11.7 6.3 7.8 77 1.9 ESE 26 41 14 22 1021.4 1021.9 0.4
27/03:30am 11.7 8.1 8.2 79 1.8 SE 17 28 9 15 1021.5 - 0.4
27/03:00am 11.0 8.4 9.4 90 0.8 SSE 13 17 7 9 1021.5 1022.0 0.4
27/02:30am 10.9 8.3 9.2 89 0.9 SSE 13 19 7 10 1021.5 - 0.4
27/02:00am 11.4 8.6 8.4 82 1.5 SE 13 20 7 11 1022.0 1022.4 0.4
27/01:30am - - 8.4 - - SE 13 19 7 10 - - 0.4
27/01:00am 10.9 9.0 9.2 89 0.9 SE 9 15 5 8 1022.3 1022.7 0.4
27/12:30am 10.5 7.7 8.4 87 1.1 SSE 13 17 7 9 1022.2 - 0.4
27/12:00am 10.4 8.2 9.3 93 0.6 SSE 11 17 6 9 1022.4 1022.9 0.4
 
Date/Time
EST
Temp
°C
App
Temp
°C
Dew
Point
Rel
Hum
%
Delta-T
°C
Wind Press
QNH
hPa
Press
MSL
hPa
Rain
since 9 am
mm
Dir
 
Spd
km/h
Gust
km/h
Spd
kts
Gust
kts
26/11:30pm 10.2 8.3 9.1 93 0.6 SSE 9 13 5 7 1022.5 - 0.4
26/11:00pm 10.6 8.4 9.4 92 0.6 SSE 11 13 6 7 1022.7 1023.2 0.4
26/10:30pm 10.7 8.9 9.5 92 0.6 SSE 9 15 5 8 1022.7 - 0.4
26/10:00pm 10.9 7.1 9.2 89 0.9 S 19 24 10 13 1022.8 1023.3 0.4
26/09:30pm 11.1 8.3 8.7 85 1.2 SSE 13 19 7 10 1022.7 - 0.4
26/09:00pm 11.1 8.4 9.0 87 1.1 SSE 13 20 7 11 1022.8 1023.3 0.4
26/08:30pm 11.6 8.8 8.6 82 1.5 SSE 13 19 7 10 1022.7 - 0.4
26/08:00pm 12.2 8.1 8.7 79 1.8 ESE 20 30 11 16 1022.6 1023.1 0.4
26/07:30pm 11.8 9.0 8.5 80 1.7 SE 13 24 7 13 1022.5 - 0.4
26/07:00pm 12.3 8.1 8.4 77 2.0 ESE 20 30 11 16 1022.1 1022.5 0.4
26/06:30pm 12.5 8.6 8.6 77 2.0 ESE 19 28 10 15 1021.9 - 0.4
26/06:00pm 12.5 9.0 8.6 77 2.0 ESE 17 28 9 15 1021.5 1022.0 0.4
26/05:30pm 12.7 8.1 8.0 73 2.4 SE 22 41 12 22 1021.2 - 0.2
26/05:00pm 12.9 7.9 8.0 72 2.5 ESE 24 41 13 22 1020.8 1021.3 0.2
26/04:30pm 13.3 9.1 8.2 71 2.6 SE 20 37 11 20 1020.7 - 0.2
26/04:00pm 12.8 7.6 8.7 76 2.1 ESE 26 39 14 21 1020.7 1021.2 0.2
26/03:30pm 12.5 7.1 7.8 73 2.4 ESE 26 44 14 24 1020.3 - 0.0
26/03:22pm 13.0 6.4 7.9 71 2.6 SE 32 50 17 27 1020.3 - 0.0
26/03:17pm 13.5 5.3 8.4 71 2.6 SE 41 50 22 27 1020.2 - 0.0
26/03:00pm 14.7 10.7 8.4 66 3.2 SE 19 28 10 15 1019.9 1020.3 0.0
26/02:30pm 15.1 10.5 8.3 64 3.5 ESE 22 32 12 17 1019.9 - 0.0
26/02:00pm 14.9 11.4 8.8 67 3.2 SE 17 24 9 13 1020.0 1020.4 0.0
26/01:30pm 16.1 11.9 7.3 56 4.5 SE 19 26 10 14 1020.1 - 0.0
26/01:00pm 16.1 12.9 8.3 60 4.0 SE 15 24 8 13 1020.4 1020.8 0.0
26/12:30pm 15.3 11.0 7.8 61 3.8 SE 20 30 11 16 1020.7 - 0.0
26/12:00pm 16.2 12.2 8.2 59 4.1 SE 19 28 10 15 1021.0 1021.5 0.0
26/11:30am 16.0 12.9 9.0 63 3.7 SE 15 22 8 12 1021.4 - 0.0
26/11:00am 14.5 10.1 7.5 63 3.5 SE 20 28 11 15 1021.9 1022.3 0.0
26/10:30am 14.5 10.4 8.0 65 3.3 SSE 19 26 10 14 1022.0 - 0.0
26/10:00am 13.9 10.7 8.3 69 2.9 SE 15 20 8 11 1022.1 1022.5 0.0
26/09:30am 12.5 9.0 8.6 77 2.0 S 17 24 9 13 1022.3 - 0.0
26/09:00am 12.0 8.4 8.5 79 1.8 SSE 17 24 9 13 1022.2 1022.6 0.0
26/08:30am 11.1 8.2 9.7 91 0.7 S 15 20 8 11 1022.2 - 0.0
26/08:00am 9.9 8.5 9.4 97 0.3 S 7 15 4 8 1022.1 1022.5 0.0
26/07:30am 8.2 6.3 7.6 96 0.3 S 7 11 4 6 1022.0 - 0.0
26/07:00am 8.2 7.6 7.6 96 0.3 CALM 0 0 0 0 1021.9 1022.3 0.0
26/06:30am 8.2 7.3 7.6 96 0.3 NNE 2 7 1 4 1021.5 - 0.0
26/06:00am 7.9 6.5 7.1 95 0.4 WNW 4 7 2 4 1021.2 1021.7 0.0
26/05:30am 7.7 5.9 7.3 97 0.2 WSW 6 9 3 5 1020.9 - 0.0
26/05:00am 7.7 6.7 7.3 97 0.2 WSW 2 6 1 3 1020.8 1021.3 0.0
26/04:30am 6.8 4.8 6.2 96 0.3 W 6 9 3 5 1020.7 - 0.0
26/04:00am 7.2 6.4 6.5 95 0.3 CALM 0 0 0 0 1020.6 1021.1 0.0
26/03:30am 7.2 5.9 6.0 92 0.6 SSE 2 9 1 5 1020.6 - 0.0
26/03:00am 7.6 5.6 6.2 91 0.7 SSE 6 9 3 5 1020.7 1021.2 0.0
26/02:30am 8.2 6.7 6.7 90 0.7 SE 4 7 2 4 1021.0 - 0.0
26/02:00am 7.8 7.0 6.3 90 0.7 CALM 0 0 0 0 1021.2 1021.7 0.0
26/01:30am 8.4 6.5 6.7 89 0.8 SSE 6 7 3 4 1021.4 - 0.0
26/01:00am 8.8 6.8 6.9 88 0.9 SSE 7 9 4 5 1021.8 1022.2 0.0
26/12:30am 8.1 6.7 5.4 83 1.2 SW 2 7 1 4 1022.0 - 0.0
26/12:00am 9.4 7.3 6.5 82 1.4 SE 7 7 4 4 1021.9 1022.3 0.0
 
Date/Time
EST
Temp
°C
App
Temp
°C
Dew
Point
Rel
Hum
%
Delta-T
°C
Wind Press
QNH
hPa
Press
MSL
hPa
Rain
since 9 am
mm
Dir
 
Spd
km/h
Gust
km/h
Spd
kts
Gust
kts
25/11:30pm 10.2 7.7 6.7 79 1.7 S 9 13 5 7 1022.0 - 0.0
25/11:00pm 10.4 9.2 6.5 77 1.9 S 2 9 1 5 1022.4 1022.9 0.0
25/10:30pm 11.3 8.9 7.0 75 2.1 SE 9 11 5 6 1022.3 - 0.0
25/10:00pm 11.2 9.0 7.7 79 1.7 SSE 9 15 5 8 1022.5 1023.0 0.0
25/09:30pm 10.0 8.8 6.5 79 1.7 SSE 2 7 1 4 1022.5 - 0.0
25/09:00pm 10.2 9.1 7.1 81 1.5 SE 2 9 1 5 1022.5 1023.0 0.0

Other Formats:

Comma delimited format used in spreadsheet applications
http://www.bom.gov.au/fwo/IDN60801/IDN60801.94727.axf

JavaScript Object Notation format (JSON) in row-major order
http://www.bom.gov.au/fwo/IDN60801/IDN60801.94727.json